sat.trackr.live / text

‹ back to catalog

PIESAT-2 10

NORAD 62334 · 2024-241B

PAYLOAD ACTIVE UNKNOWN

§ Identity

Operator
Country
PRC
Launch date
2024-12-16
Launch site
TAISC
Launch vehicle
Mass (kg)
RCS (m²)

External: N2YO · Heavens-Above · Gunter

§ Orbital elements

Epoch: 2026-05-24T13:51:23.332032Z

Period
95.12 min
Inclination
97.5364°
Eccentricity
0.0002497
Mean motion
15.13882428 rev/d
Perigee alt
522.6 km
Apogee alt
526.1 km
Semi-major
6,902.5 km
B*
2.1029e-4
RAAN
92.8756°
Arg perigee
82.9470°
Mean anomaly
277.2045°
Rev number
7,923

§ Raw data

PIESAT-2 101 62334U 24241B   26144.57735338  .00003739  00000+0  21029-3 0  99972 62334  97.5364  92.8756 0002497  82.9470 277.2045 15.13882428 79233

JSON: /api/v1/satellites/62334 · /tle

For live sub-satellite position, see the globe view (requires WebGL).

§ Visibility from observer

Set your observer location to see the next 7 days of passes ≥ 10°. The values pass through the URL so the page stays shareable.

No JS? Fill the form by hand. The geolocation button needs JavaScript.